Temp
-14 -14 -14 -14 -14 -14 -13 -13 -13 -13 -13 -13 -13 -13 -13 -13 -12 -12 -12 -12 -12 -12 -12 -12 -12 -12 -12 -12 -12 -12 -12 -12 -12 -12 -12 -12 -11 -11 -11 -11 -11 -11 -11 -11 -11 -11 -11 -11 -10 -10 -10 -10 -10 -10 -10 -10 -11 -11 -11 -10 -10 -11 -11 -11 -11 -11 -11 -11 -11 -11 -11 -11 -11 -10
-14 -14 -14 -14 -14 -14 -14 -13 -13 -14 -13 -13 -13 -13 -13 -13 -12 -12 -12 -12 -12 -12 -12 -12 -12 -12 -12 -12 -12 -12 -12 -12 -12 -12 -12 -12 -12 -11 -11 -12 -12 -11 -11 -11 -11 -11 -11 -11 -11 -11 -11 -11 -11 -11 -11 -11 -11 -11 -11 -11 -11 -10 -11 -11 -11 -11 -11 -11 -11 -11 -11 -11 -11 -11
-14 -14 -14 -14 -14 -14 -14 -14 -13 -13 -14 -13 -13 -13 -13 -12 -12 -12 -12 -12 -12 -12 -12 -12 -12 -12 -12 -12 -12 -12 -12 -12 -12 -12 -12 -12 -12 -12 -12 -12 -12 -12 -12 -11 -11 -11 -11 -11 -11 -11 -11 -11 -11 -11 -11 -11 -11 -11 -11 -11 -11 -11 -11 -11 -11 -11 -11 -11 -11 -11 -11 -11 -11 -11
-14 -14 -14 -14 -14 -14 -14 -14 -14 -13 -14 -13 -13 -13 -13 -12 -12 -12 -12 -12 -12 -12 -12 -12 -12 -12 -12 -12 -12 -12 -12 -12 -12 -12 -12 -12 -12 -12 -12 -12 -12 -12 -12 -12 -12 -12 -11 -11 -11 -11 -11 -11 -11 -11 -11 -11 -11 -11 -11 -11 -11 -11 -11 -11 -11 -11 -11 -11 -11 -11 -11 -11 -11 -11
-14 -14 -14 -14 -14 -14 -14 -14 -14 -14 -14 -13 -13 -13 -13 -13 -13 -12 -12 -13 -13 -12 -12 -12 -12 -12 -12 -12 -12 -12 -12 -12 -12 -12 -12 -12 -12 -12 -12 -12 -12 -12 -12 -12 -12 -12 -12 -12 -11 -11 -11 -11 -11 -11 -11 -11 -11 -11 -11 -11 -11 -11 -10 -10 -10 -10 -11 -11 -11 -11 -11 -11 -11 -11
-14 -14 -14 -14 -14 -14 -14 -14 -14 -14 -14 -13 -13 -13 -13 -13 -13 -12 -12 -12 -13 -12 -12 -12 -12 -12 -12 -12 -12 -12 -12 -12 -12 -12 -12 -12 -12 -12 -12 -12 -12 -12 -12 -12 -12 -12 -12 -12 -12 -12 -11 -11 -11 -11 -11 -11 -11 -11 -11 -11 -11 -11 -11 -11 -11 -11 -11 -11 -11 -11 -11 -11 -11 -11
-14 -14 -14 -14 -14 -14 -14 -14 -14 -14 -14 -14 -14 -13 -13 -13 -13 -12 -12 -12 -13 -13 -13 -12 -12 -12 -12 -12 -12 -12 -12 -12 -12 -12 -12 -12 -12 -12 -12 -13 -12 -12 -12 -12 -12 -12 -12 -12 -12 -12 -12 -12 -12 -11 -11 -11 -11 -11 -11 -11 -11 -11 -11 -11 -11 -11 -11 -11 -11 -11 -11 -11 -11 -11
-15 -15 -14 -14 -14 -14 -14 -14 -14 -14 -14 -14 -14 -13 -13 -13 -13 -13 -13 -13 -13 -13 -13 -13 -13 -12 -12 -12 -12 -12 -12 -12 -12 -12 -12 -12 -12 -12 -12 -13 -12 -12 -12 -12 -12 -12 -12 -12 -12 -12 -12 -12 -12 -12 -12 -11 -11 -11 -11 -11 -11 -11 -11 -11 -11 -11 -11 -11 -11 -11 -11 -11 -11 -11
-15 -15 -15 -14 -14 -14 -14 -14 -14 -14 -14 -14 -14 -14 -14 -13 -13 -13 -13 -13 -13 -13 -13 -13 -13 -12 -12 -12 -12 -12 -12 -12 -12 -12 -12 -12 -12 -12 -12 -13 -13 -12 -12 -12 -12 -12 -12 -12 -12 -12 -12 -12 -12 -12 -12 -12 -12 -12 -12 -12 -12 -12 -12 -11 -11 -11 -11 -11 -11 -11 -11 -11 -11 -11
-15 -15 -15 -14 -14 -14 -14 -14 -15 -15 -14 -14 -14 -14 -14 -14 -14 -14 -14 -13 -13 -13 -13 -13 -13 -12 -12 -12 -12 -12 -12 -12 -12 -12 -12 -12 -12 -12 -12 -13 -13 -13 -12 -12 -12 -12 -12 -12 -12 -12 -12 -12 -12 -12 -12 -12 -12 -12 -12 -12 -12 -12 -12 -12 -12 -12 -12 -11 -11 -11 -11 -11 -11 -11
-15 -15 -15 -15 -14 -14 -15 -15 -15 -15 -14 -14 -14 -14 -14 -14 -14 -14 -14 -14 -14 -13 -13 -13 -13 -13 -13 -13 -13 -12 -12 -12 -12 -12 -12 -12 -12 -12 -12 -13 -13 -13 -13 -13 -12 -12 -12 -12 -12 -12 -12 -12 -12 -12 -12 -12 -12 -12 -12 -12 -12 -12 -12 -12 -12 -12 -12 -12 -12 -12 -12 -12 -12 -12
-15 -15 -15 -15 -15 -15 -15 -15 -15 -15 -14 -14 -14 -15 -15 -14 -14 -14 -14 -14 -14 -13 -13 -13 -13 -13 -13 -13 -13 -12 -12 -12 -12 -12 -12 -12 -12 -12 -12 -13 -13 -13 -13 -13 -12 -12 -12 -12 -12 -12 -12 -12 -13 -13 -12 -12 -12 -12 -12 -12 -12 -12 -12 -13 -13 -12 -12 -12 -12 -12 -12 -12 -12 -12
-15 -15 -15 -15 -15 -15 -15 -15 -15 -15 -15 -14 -14 -14 -15 -15 -14 -14 -14 -14 -14 -14 -14 -14 -13 -13 -13 -13 -13 -12 -12 -12 -12 -13 -13 -13 -12 -12 -12 -12 -13 -13 -13 -13 -13 -13 -13 -12 -12 -12 -12 -12 -13 -13 -12 -12 -12 -12 -12 -12 -12 -12 -13 -13 -13 -12 -12 -12 -12 -12 -12 -12 -12 -12
-15 -15 -15 -15 -15 -15 -15 -14 -14 -15 -14 -14 -14 -14 -14 -14 -14 -14 -14 -14 -14 -14 -14 -14 -13 -13 -13 -13 -13 -12 -12 -13 -13 -13 -13 -13 -13 -13 -12 -12 -13 -13 -13 -13 -13 -13 -13 -13 -12 -12 -13 -13 -13 -13 -13 -13 -13 -13 -12 -12 -12 -13 -13 -13 -12 -12 -12 -12 -12 -12 -12 -12 -12 -13
-15 -15 -15 -15 -15 -15 -15 -15 -15 -15 -14 -14 -14 -14 -14 -14 -14 -14 -14 -14 -14 -14 -14 -14 -13 -13 -13 -13 -13 -13 -13 -13 -13 -13 -13 -13 -13 -13 -13 -13 -12 -12 -12 -13 -12 -12 -13 -13 -13 -13 -13 -13 -13 -13 -13 -13 -13 -13 -13 -12 -12 -13 -13 -13 -13 -13 -13 -13 -13 -12 -12 -12 -12 -12
-16 -15 -15 -15 -15 -15 -15 -15 -15 -15 -15 -14 -14 -14 -14 -14 -14 -14 -14 -14 -14 -14 -14 -14 -14 -14 -13 -13 -13 -13 -13 -13 -13 -13 -13 -13 -13 -13 -13 -13 -13 -12 -12 -12 -12 -12 -13 -13 -13 -13 -13 -13 -13 -13 -12 -13 -13 -13 -13 -13 -13 -13 -13 -13 -13 -13 -13 -13 -13 -13 -13 -13 -12 -12
-16 -16 -15 -15 -15 -15 -15 -15 -15 -15 -15 -14 -14 -14 -14 -14 -14 -14 -14 -15 -15 -14 -14 -14 -14 -14 -13 -13 -13 -13 -13 -13 -13 -13 -13 -13 -13 -13 -13 -13 -13 -13 -12 -12 -12 -12 -12 -13 -13 -13 -13 -13 -13 -13 -13 -13 -13 -12 -13 -13 -13 -13 -13 -13 -13 -13 -13 -13 -13 -13 -13 -13 -13 -12
-16 -16 -16 -15 -15 -15 -15 -15 -15 -14 -14 -14 -14 -14 -14 -14 -14 -14 -14 -15 -15 -15 -14 -14 -14 -14 -13 -13 -13 -13 -13 -13 -13 -13 -13 -13 -13 -13 -13 -13 -13 -13 -13 -12 -12 -12 -12 -12 -13 -12 -12 -13 -13 -13 -13 -13 -13 -13 -13 -13 -13 -13 -13 -13 -13 -13 -13 -13 -13 -13 -13 -13 -13 -12
-16 -16 -16 -16 -15 -15 -15 -15 -14 -14 -14 -14 -14 -14 -14 -14 -14 -14 -14 -15 -15 -15 -15 -14 -14 -14 -13 -13 -13 -13 -13 -13 -13 -13 -13 -13 -13 -13 -13 -13 -13 -13 -13 -13 -12 -12 -12 -12 -12 -12 -12 -12 -12 -12 -13 -12 -12 -13 -13 -12 -12 -13 -13 -13 -13 -13 -13 -13 -13 -13 -13 -13 -13 -12
-16 -16 -16 -16 -15 -15 -15 -15 -15 -14 -14 -14 -14 -14 -14 -14 -14 -14 -14 -14 -14 -15 -15 -15 -14 -14 -14 -13 -13 -13 -13 -13 -13 -13 -13 -13 -13 -13 -13 -13 -13 -13 -13 -13 -12 -12 -13 -13 -12 -12 -13 -13 -13 -12 -12 -12 -12 -13 -13 -12 -12 -13 -13 -13 -13 -13 -13 -13 -13 -13 -13 -13 -13 -12
-16 -16 -16 -16 -16 -15 -15 -15 -15 -14 -14 -14 -14 -14 -14 -15 -14 -14 -14 -14 -14 -14 -14 -14 -14 -14 -14 -14 -13 -13 -13 -13 -14 -14 -13 -13 -13 -13 -13 -13 -13 -13 -13 -13 -13 -13 -13 -13 -13 -13 -13 -13 -13 -13 -13 -13 -13 -13 -13 -13 -13 -13 -13 -13 -13 -13 -13 -13 -13 -13 -13 -13 -13 -13
-16 -16 -16 -16 -16 -16 -15 -15 -15 -15 -15 -14 -14 -14 -15 -15 -14 -14 -14 -14 -14 -14 -14 -14 -15 -15 -14 -14 -14 -13 -13 -14 -14 -14 -14 -14 -14 -14 -14 -13 -13 -13 -13 -13 -13 -13 -13 -13 -13 -13 -13 -13 -13 -13 -13 -13 -13 -13 -13 -13 -13 -13 -13 -13 -13 -13 -13 -13 -13 -13 -13 -13 -13 -13
-16 -16 -16 -16 -16 -16 -16 -15 -15 -15 -15 -15 -15 -15 -15 -15 -14 -14 -14 -14 -14 -14 -14 -14 -14 -15 -15 -14 -14 -14 -14 -14 -14 -14 -14 -14 -14 -14 -14 -13 -13 -13 -13 -13 -13 -13 -13 -13 -13 -13 -13 -13 -13 -13 -13 -13 -13 -13 -13 -13 -13 -13 -13 -13 -13 -13 -13 -13 -13 -13 -13 -13 -13 -13
-16 -16 -16 -16 -16 -16 -16 -15 -15 -15 -15 -15 -15 -15 -15 -15 -15 -15 -15 -14 -14 -14 -14 -14 -14 -14 -14 -14 -14 -14 -14 -14 -14 -14 -14 -14 -14 -14 -14 -13 -13 -13 -13 -13 -13 -13 -13 -13 -13 -13 -13 -13 -13 -13 -13 -13 -13 -13 -13 -13 -13 -13 -13 -13 -13 -13 -13 -13 -13 -13 -13 -13 -13 -13
-16 -16 -16 -16 -16 -16 -16 -16 -15 -15 -15 -15 -15 -15 -15 -15 -15 -15 -15 -14 -14 -14 -14 -14 -14 -14 -14 -14 -14 -14 -14 -14 -14 -14 -14 -14 -14 -14 -14 -14 -14 -14 -13 -13 -13 -13 -13 -13 -13 -13 -13 -13 -13 -13 -13 -13 -13 -13 -13 -13 -13 -13 -13 -13 -13 -13 -13 -13 -13 -13 -13 -14 -14 -14
-16 -16 -16 -16 -16 -16 -16 -16 -15 -15 -15 -15 -15 -15 -15 -15 -15 -15 -15 -15 -15 -14 -14 -14 -15 -15 -15 -15 -15 -15 -15 -15 -15 -15 -14 -14 -14 -14 -14 -14 -14 -14 -14 -14 -14 -14 -13 -13 -13 -13 -13 -13 -13 -13 -13 -13 -13 -13 -13 -13 -13 -13 -13 -13 -13 -13 -13 -14 -14 -14 -14 -14 -14 -14
-16 -16 -16 -16 -16 -16 -16 -16 -16 -15 -15 -15 -15 -15 -15 -15 -15 -15 -15 -15 -15 -15 -15 -15 -15 -15 -15 -15 -15 -15 -15 -15 -15 -15 -15 -15 -15 -15 -15 -14 -14 -14 -14 -14 -14 -14 -14 -14 -14 -14 -14 -14 -14 -14 -14 -14 -14 -14 -14 -14 -14 -14 -14 -14 -14 -14 -14 -14 -14 -14 -14 -14 -14 -14
-17 -16 -16 -16 -16 -16 -16 -16 -16 -16 -15 -15 -15 -15 -15 -15 -15 -15 -15 -15 -15 -15 -15 -15 -15 -15 -15 -15 -15 -15 -15 -15 -15 -15 -15 -15 -15 -15 -15 -15 -15 -15 -15 -15 -14 -14 -14 -14 -14 -14 -14 -14 -14 -14 -14 -14 -14 -14 -14 -14 -14 -14 -14 -14 -14 -14 -14 -14 -14 -14 -14 -14 -14 -14
-17 -17 -16 -16 -16 -16 -16 -16 -16 -16 -16 -15 -15 -15 -15 -15 -15 -15 -15 -15 -15 -15 -15 -15 -15 -15 -15 -15 -15 -15 -15 -15 -15 -15 -15 -15 -14 -14 -14 -15 -15 -15 -15 -15 -15 -15 -15 -15 -14 -14 -14 -14 -15 -15 -15 -15 -15 -15 -15 -15 -15 -15 -15 -15 -15 -15 -15 -15 -15 -15 -15 -15 -15 -15
-17 -17 -17 -16 -16 -16 -16 -16 -16 -16 -16 -16 -16 -15 -15 -15 -15 -15 -15 -15 -15 -15 -15 -15 -15 -15 -15 -15 -15 -15 -15 -15 -15 -15 -15 -15 -15 -15 -14 -14 -15 -15 -15 -15 -15 -15 -15 -15 -15 -15 -15 -15 -15 -15 -15 -15 -15 -15 -15 -15 -15 -15 -15 -15 -15 -16 -16 -16 -16 -16 -16 -16 -16 -16
-17 -17 -17 -17 -16 -16 -16 -16 -16 -16 -16 -16 -16 -16 -16 -16 -16 -16 -16 -15 -15 -15 -15 -15 -15 -16 -16 -15 -15 -15 -15 -15 -15 -15 -15 -15 -15 -15 -15 -15 -15 -15 -15 -15 -15 -15 -15 -15 -15 -15 -16 -16 -16 -16 -16 -16 -16 -16 -16 -16 -16 -16 -16 -16 -16 -17 -17 -17 -17 -17 -17 -17 -17 -17
-18 -17 -17 -17 -17 -16 -16 -16 -16 -16 -16 -16 -16 -16 -16 -16 -16 -16 -16 -16 -16 -16 -16 -16 -16 -16 -16 -16 -16 -16 -16 -16 -15 -15 -15 -15 -15 -16 -16 -15 -15 -16 -16 -16 -16 -16 -16 -16 -16 -16 -16 -16 -16 -16 -17 -17 -17 -17 -17 -17 -17 -17 -17 -17 -17 -17 -18 -18 -18 -18 -18 -18 -18 -18
-18 -18 -17 -17 -17 -17 -17 -16 -16 -16 -16 -16 -16 -16 -16 -16 -16 -16 -16 -16 -16 -16 -16 -16 -16 -16 -16 -16 -16 -16 -16 -16 -16 -16 -16 -16 -16 -16 -16 -16 -16 -16 -16 -16 -17 -17 -17 -17 -17 -17 -17 -17 -17 -17 -17 -17 -17 -18 -18 -18 -18 -18 -18 -18 -18 -18 -18 -18 -18 -18 -18 -18 -18 -18
-19 -18 -18 -18 -17 -17 -17 -17 -17 -17 -16 -16 -16 -16 -16 -16 -16 -16 -16 -17 -17 -17 -17 -17 -17 -17 -17 -17 -17 -17 -17 -17 -17 -17 -17 -17 -17 -17 -17 -17 -17 -17 -17 -17 -17 -17 -17 -17 -17 -17 -18 -18 -18 -18 -18 -18 -18 -18 -18 -18 -18 -18 -18 -18 -18 -18 -18 -18 -18 -18 -18 -18 -18 -18
-19 -19 -18 -18 -18 -18 -17 -17 -17 -17 -17 -17 -17 -17 -17 -17 -17 -17 -17 -17 -17 -17 -17 -17 -17 -17 -17 -17 -17 -17 -17 -17 -17 -17 -17 -17 -17 -18 -18 -18 -18 -18 -18 -18 -18 -18 -18 -18 -18 -18 -18 -18 -18 -18 -18 -18 -18 -18 -18 -18 -18 -18 -18 -18 -18 -18 -18 -18 -18 -18 -18 -18 -18 -18
-19 -19 -19 -18 -18 -18 -18 -18 -18 -17 -17 -17 -17 -17 -17 -17 -17 -17 -17 -17 -17 -17 -17 -17 -17 -17 -17 -17 -17 -17 -17 -18 -18 -18 -18 -18 -18 -18 -18 -18 -18 -18 -18 -18 -18 -18 -18 -18 -18 -18 -18 -18 -18 -18 -18 -18 -18 -18 -18 -18 -18 -18 -18 -18 -18 -18 -18 -18 -18 -18 -18 -18 -18 -18
-19 -19 -19 -19 -19 -18 -18 -18 -18 -18 -18 -18 -18 -18 -18 -18 -18 -18 -18 -18 -17 -17 -18 -18 -18 -18 -18 -18 -18 -18 -18 -18 -18 -18 -18 -18 -18 -18 -18 -18 -18 -18 -18 -18 -18 -18 -18 -18 -18 -18 -18 -18 -18 -18 -18 -18 -18 -18 -18 -18 -18 -18 -18 -18 -18 -18 -18 -18 -18 -18 -18 -18 -18 -18
-19 -19 -19 -19 -19 -19 -19 -18 -18 -18 -18 -18 -18 -18 -18 -18 -18 -18 -18 -18 -18 -18 -18 -18 -18 -18 -18 -18 -18 -18 -18 -18 -18 -18 -18 -18 -18 -18 -18 -18 -18 -18 -18 -18 -18 -18 -18 -18 -18 -18 -18 -18 -18 -18 -18 -18 -18 -18 -18 -18 -18 -18 -18 -18 -18 -18 -18 -18 -18 -18 -18 -18 -18 -18
-18 -19 -19 -19 -19 -19 -19 -18 -18 -18 -18 -18 -18 -18 -18 -18 -18 -18 -18 -18 -18 -18 -18 -18 -18 -18 -18 -18 -18 -18 -18 -18 -18 -18 -18 -18 -18 -18 -18 -18 -18 -18 -18 -18 -18 -18 -18 -18 -18 -18 -18 -18 -18 -18 -18 -18 -18 -18 -18 -18 -18 -18 -18 -18 -18 -18 -18 -18 -18 -18 -18 -18 -18 -19
-18 -18 -18 -18 -18 -18 -18 -18 -18 -18 -18 -18 -18 -18 -18 -18 -18 -18 -18 -18 -18 -18 -18 -18 -18 -18 -18 -18 -18 -18 -19 -19 -18 -19 -18 -18 -18 -18 -18 -18 -18 -18 -18 -18 -18 -18 -18 -18 -18 -18 -18 -18 -18 -18 -18 -18 -18 -18 -18 -18 -18 -18 -18 -18 -18 -18 -18 -18 -18 -18 -19 -19 -19 -19
-18 -18 -18 -18 -18 -18 -18 -18 -18 -18 -18 -18 -18 -18 -18 -18 -18 -18 -18 -18 -18 -18 -18 -18 -18 -18 -18 -18 -19 -19 -19 -19 -19 -19 -19 -19 -19 -19 -19 -19 -18 -18 -18 -18 -18 -18 -18 -18 -18 -18 -18 -18 -18 -18 -18 -18 -18 -18 -18 -18 -18 -18 -18 -18 -18 -18 -18 -18 -18 -19 -19 -19 -19 -19
-18 -18 -18 -18 -18 -18 -18 -18 -18 -18 -18 -18 -18 -18 -18 -18 -18 -18 -18 -18 -18 -18 -18 -18 -18 -18 -19 -19 -19 -19 -19 -19 -19 -19 -19 -19 -19 -19 -19 -19 -18 -18 -18 -18 -18 -18 -18 -18 -18 -18 -18 -18 -18 -18 -18 -18 -18 -18 -18 -18 -18 -18 -18 -18 -18 -18 -19 -19 -19 -19 -19 -19 -19 -19
-18 -18 -18 -18 -18 -18 -18 -18 -18 -18 -18 -18 -18 -18 -18 -18 -18 -18 -18 -18 -18 -18 -18 -18 -18 -18 -19 -19 -19 -19 -19 -19 -19 -19 -19 -19 -19 -19 -19 -19 -18 -18 -18 -18 -19 -18 -18 -18 -18 -18 -18 -18 -18 -18 -18 -18 -18 -18 -18 -18 -18 -19 -19 -19 -19 -19 -19 -19 -19 -19 -19 -19 -19 -19
-18 -18 -18 -18 -18 -18 -18 -18 -18 -18 -18 -18 -18 -18 -18 -18 -18 -18 -18 -18 -18 -18 -18 -18 -19 -19 -19 -19 -19 -19 -19 -19 -19 -19 -19 -19 -19 -19 -19 -19 -18 -18 -19 -19 -19 -19 -19 -18 -18 -18 -18 -18 -18 -18 -19 -19 -19 -19 -19 -19 -19 -19 -19 -19 -19 -19 -19 -19 -19 -19 -19 -19 -19 -19
-18 -18 -18 -18 -18 -18 -18 -18 -18 -18 -18 -18 -18 -18 -18 -18 -18 -18 -18 -18 -18 -19 -19 -19 -19 -19 -19 -19 -19 -19 -19 -19 -19 -19 -19 -19 -19 -19 -19 -19 -19 -19 -19 -19 -19 -19 -19 -19 -19 -19 -19 -19 -19 -19 -19 -19 -19 -19 -19 -19 -19 -19 -19 -19 -19 -19 -19 -19 -19 -19 -19 -19 -19 -19
Height
5762 5763 5765 5766 5767 5768 5770 5771 5773 5774 5775 5777 5779 5780 5782 5785 5787 5789 5791 5792 5793 5794 5796 5797 5798 5798 5800 5801 5802 5803 5806 5808 5809 5811 5812 5812 5812 5813 5813 5814 5815 5816 5817 5817 5818 5819 5820 5821 5822 5823 5824 5825 5826 5828 5828 5829 5830 5830 5831 5832 5833 5833 5834 5834 5835 5835 5835 5836 5836 5836 5837 5837 5837 5837
5759 5760 5761 5762 5763 5764 5766 5768 5769 5770 5772 5774 5775 5776 5778 5781 5783 5785 5787 5789 5790 5792 5793 5794 5794 5795 5797 5798 5799 5800 5802 5804 5805 5807 5809 5809 5809 5810 5811 5812 5812 5813 5814 5815 5816 5816 5817 5818 5819 5820 5821 5822 5823 5825 5826 5826 5827 5828 5828 5829 5830 5831 5831 5832 5832 5833 5833 5833 5834 5834 5834 5835 5835 5835
5755 5756 5757 5759 5760 5761 5763 5764 5766 5767 5769 5770 5772 5772 5774 5777 5779 5781 5783 5785 5787 5788 5789 5789 5790 5792 5794 5795 5796 5797 5799 5800 5802 5804 5806 5806 5807 5807 5808 5808 5809 5810 5811 5812 5813 5813 5814 5815 5816 5817 5818 5819 5820 5821 5822 5823 5824 5825 5825 5826 5827 5827 5828 5829 5829 5830 5830 5831 5831 5831 5832 5832 5832 5833
5751 5752 5753 5755 5757 5758 5759 5761 5762 5764 5766 5767 5768 5769 5770 5773 5775 5777 5779 5781 5783 5783 5784 5786 5787 5789 5791 5792 5793 5794 5795 5797 5799 5801 5803 5803 5803 5804 5805 5805 5805 5806 5807 5808 5810 5811 5812 5813 5813 5814 5815 5816 5817 5818 5819 5820 5821 5821 5822 5823 5824 5824 5825 5826 5826 5827 5827 5828 5828 5829 5829 5829 5829 5830
5747 5748 5749 5750 5752 5754 5755 5757 5758 5760 5762 5763 5764 5765 5767 5769 5771 5772 5775 5777 5778 5779 5781 5782 5783 5785 5787 5788 5790 5791 5792 5794 5795 5797 5798 5799 5799 5800 5801 5802 5803 5804 5804 5806 5807 5808 5809 5810 5811 5812 5812 5813 5814 5815 5816 5817 5817 5818 5819 5820 5821 5821 5822 5823 5824 5824 5825 5825 5826 5826 5826 5826 5827 5827
5743 5744 5745 5746 5747 5749 5751 5753 5754 5756 5758 5759 5760 5762 5763 5765 5767 5769 5770 5773 5774 5775 5777 5779 5780 5781 5783 5785 5786 5788 5789 5791 5791 5793 5793 5794 5795 5796 5798 5800 5802 5803 5804 5805 5806 5806 5807 5808 5809 5809 5810 5811 5811 5812 5813 5814 5814 5815 5816 5817 5818 5819 5820 5820 5821 5821 5822 5822 5823 5823 5823 5824 5824 5824
5738 5740 5741 5742 5743 5746 5747 5749 5750 5752 5754 5756 5757 5758 5759 5761 5763 5765 5767 5769 5771 5772 5774 5775 5777 5778 5780 5782 5782 5784 5786 5787 5788 5789 5789 5790 5792 5794 5796 5797 5798 5799 5801 5802 5803 5804 5805 5805 5806 5807 5807 5808 5809 5809 5810 5811 5812 5813 5814 5815 5816 5817 5817 5818 5818 5819 5819 5820 5820 5820 5821 5821 5821 5821
5734 5735 5737 5739 5740 5742 5743 5745 5746 5749 5751 5752 5753 5754 5755 5757 5759 5761 5763 5765 5767 5769 5770 5771 5774 5776 5777 5777 5778 5779 5781 5782 5784 5785 5786 5786 5788 5791 5793 5794 5794 5793 5794 5796 5797 5799 5801 5802 5803 5803 5804 5805 5805 5807 5808 5809 5810 5811 5812 5813 5814 5814 5815 5816 5816 5816 5817 5817 5817 5818 5818 5818 5818 5818
5730 5731 5733 5735 5736 5737 5738 5740 5742 5744 5747 5748 5749 5750 5751 5754 5755 5756 5757 5760 5762 5764 5766 5767 5769 5771 5772 5773 5775 5776 5777 5778 5779 5781 5782 5783 5784 5786 5789 5791 5791 5790 5791 5793 5795 5796 5797 5798 5799 5800 5801 5802 5803 5804 5806 5807 5808 5809 5810 5811 5812 5812 5813 5813 5813 5814 5814 5814 5814 5814 5814 5815 5815 5815
5726 5727 5728 5730 5731 5732 5733 5735 5737 5740 5742 5744 5744 5746 5748 5750 5751 5752 5753 5755 5758 5760 5762 5763 5765 5766 5767 5769 5771 5772 5773 5774 5775 5776 5777 5778 5779 5781 5784 5787 5788 5788 5790 5792 5793 5794 5795 5795 5795 5796 5798 5799 5800 5802 5803 5804 5804 5805 5806 5807 5807 5808 5809 5809 5810 5811 5811 5810 5810 5811 5811 5812 5812 5813
5722 5723 5724 5726 5728 5729 5731 5732 5734 5736 5738 5739 5741 5742 5744 5746 5748 5749 5750 5752 5754 5756 5758 5759 5761 5762 5763 5765 5767 5768 5769 5770 5771 5771 5773 5774 5774 5776 5779 5782 5784 5785 5787 5788 5790 5790 5791 5791 5792 5793 5795 5796 5797 5798 5799 5800 5800 5801 5801 5801 5802 5803 5804 5805 5806 5806 5806 5807 5807 5808 5808 5808 5809 5809
5718 5719 5720 5723 5725 5726 5728 5730 5731 5733 5735 5736 5738 5740 5742 5743 5744 5746 5747 5748 5750 5752 5754 5755 5756 5758 5759 5761 5763 5764 5764 5766 5766 5767 5768 5770 5771 5772 5774 5777 5779 5781 5782 5784 5786 5786 5787 5788 5789 5790 5791 5792 5793 5794 5796 5796 5797 5797 5797 5797 5799 5799 5800 5801 5801 5802 5803 5804 5805 5805 5804 5804 5805 5806
5714 5715 5717 5719 5720 5722 5724 5727 5728 5730 5731 5733 5735 5737 5739 5740 5741 5743 5744 5745 5746 5747 5749 5751 5752 5754 5755 5757 5759 5760 5760 5761 5762 5763 5764 5766 5767 5768 5770 5772 5775 5776 5777 5780 5782 5782 5783 5784 5785 5786 5787 5788 5790 5791 5792 5792 5792 5793 5793 5795 5796 5795 5796 5798 5798 5798 5799 5800 5801 5801 5800 5800 5801 5801
5711 5712 5714 5715 5716 5718 5721 5723 5724 5726 5727 5730 5732 5734 5736 5737 5738 5739 5740 5741 5742 5743 5745 5747 5749 5751 5752 5753 5755 5755 5755 5756 5758 5759 5760 5762 5763 5765 5766 5768 5770 5772 5773 5775 5777 5779 5780 5780 5781 5783 5784 5785 5787 5787 5788 5788 5787 5788 5789 5791 5792 5792 5793 5794 5794 5795 5796 5795 5796 5797 5797 5796 5796 5797
5708 5709 5710 5712 5713 5715 5716 5718 5720 5721 5723 5726 5728 5730 5732 5733 5734 5735 5736 5737 5738 5740 5742 5743 5745 5746 5747 5749 5750 5750 5751 5753 5754 5755 5756 5757 5759 5761 5763 5764 5766 5767 5769 5771 5773 5774 5776 5777 5778 5780 5781 5782 5783 5783 5783 5784 5783 5784 5786 5787 5788 5788 5788 5789 5789 5790 5791 5791 5791 5792 5792 5792 5792 5792
5704 5706 5707 5709 5710 5711 5712 5715 5717 5718 5720 5722 5724 5727 5728 5729 5730 5731 5732 5733 5735 5736 5738 5739 5740 5742 5743 5744 5745 5745 5747 5749 5750 5751 5753 5754 5754 5756 5758 5760 5762 5764 5765 5767 5768 5770 5772 5773 5774 5775 5775 5777 5778 5779 5779 5780 5780 5781 5782 5783 5783 5784 5784 5784 5785 5785 5786 5786 5786 5787 5787 5787 5787 5787
5701 5703 5704 5706 5707 5708 5709 5711 5713 5715 5717 5719 5722 5723 5724 5726 5727 5728 5729 5730 5731 5732 5733 5734 5736 5737 5739 5739 5740 5741 5742 5744 5745 5746 5748 5750 5750 5751 5754 5756 5758 5760 5761 5763 5764 5766 5768 5769 5769 5770 5771 5772 5774 5775 5776 5776 5776 5776 5777 5778 5778 5779 5779 5780 5780 5780 5781 5781 5781 5782 5782 5782 5782 5782
5698 5700 5701 5702 5704 5705 5706 5708 5710 5712 5714 5717 5719 5720 5721 5722 5724 5725 5725 5726 5727 5728 5729 5730 5731 5733 5735 5735 5735 5736 5737 5739 5741 5743 5744 5745 5747 5748 5749 5751 5754 5756 5757 5759 5760 5761 5762 5764 5765 5766 5767 5768 5769 5770 5771 5771 5771 5772 5772 5773 5773 5774 5774 5775 5776 5776 5776 5776 5777 5777 5777 5776 5776 5776
5695 5697 5698 5700 5701 5703 5704 5705 5707 5709 5711 5713 5715 5716 5718 5720 5721 5721 5722 5723 5723 5724 5726 5726 5727 5728 5730 5731 5731 5732 5733 5735 5738 5739 5740 5741 5742 5744 5745 5747 5749 5751 5753 5755 5756 5757 5758 5759 5761 5762 5763 5764 5764 5765 5766 5767 5767 5767 5767 5767 5768 5769 5769 5770 5771 5771 5772 5772 5772 5772 5771 5771 5771 5771
5692 5694 5695 5697 5699 5700 5701 5702 5704 5706 5708 5710 5712 5713 5715 5716 5717 5718 5719 5719 5720 5721 5722 5723 5724 5724 5726 5727 5727 5728 5730 5732 5735 5736 5736 5736 5737 5739 5741 5743 5745 5746 5748 5750 5752 5753 5754 5755 5756 5757 5758 5759 5760 5760 5761 5762 5762 5762 5762 5762 5763 5764 5764 5765 5766 5766 5767 5767 5766 5766 5766 5766 5766 5765
5689 5691 5693 5695 5696 5697 5698 5700 5701 5703 5705 5707 5709 5710 5712 5713 5714 5715 5716 5717 5717 5718 5719 5719 5720 5720 5721 5722 5723 5724 5726 5727 5730 5732 5732 5731 5733 5735 5737 5738 5740 5741 5743 5745 5747 5748 5749 5750 5751 5752 5752 5753 5755 5756 5757 5757 5757 5757 5758 5758 5758 5759 5759 5760 5760 5760 5760 5760 5761 5760 5760 5760 5760 5759
5687 5689 5690 5692 5694 5695 5696 5697 5698 5701 5703 5704 5705 5707 5709 5710 5711 5712 5713 5714 5715 5715 5716 5716 5716 5717 5717 5718 5719 5720 5721 5723 5724 5726 5727 5727 5728 5730 5732 5733 5735 5736 5737 5739 5741 5742 5743 5744 5745 5746 5747 5748 5749 5750 5751 5751 5752 5752 5753 5753 5753 5753 5754 5754 5754 5754 5754 5754 5754 5754 5754 5754 5753 5752
5684 5686 5687 5689 5691 5692 5693 5695 5696 5698 5700 5701 5702 5704 5705 5707 5708 5709 5710 5711 5712 5712 5713 5713 5714 5714 5714 5714 5715 5716 5717 5718 5720 5721 5722 5723 5724 5725 5727 5728 5730 5731 5732 5733 5735 5736 5737 5738 5739 5740 5741 5742 5743 5744 5745 5745 5746 5746 5747 5747 5747 5748 5748 5748 5748 5748 5748 5748 5748 5748 5747 5747 5746 5745
5681 5682 5684 5686 5688 5690 5691 5692 5694 5695 5697 5698 5700 5701 5702 5703 5705 5706 5707 5708 5709 5709 5710 5711 5711 5711 5711 5711 5712 5713 5713 5714 5716 5717 5718 5719 5720 5721 5722 5723 5724 5726 5727 5728 5729 5730 5731 5732 5733 5734 5735 5736 5737 5738 5738 5739 5739 5740 5740 5741 5741 5741 5741 5742 5742 5741 5741 5741 5741 5741 5740 5740 5739 5739
5678 5680 5682 5684 5685 5687 5689 5690 5691 5692 5694 5695 5697 5698 5699 5701 5702 5703 5704 5705 5706 5706 5707 5708 5708 5709 5709 5709 5709 5710 5711 5712 5713 5714 5714 5715 5716 5717 5717 5718 5719 5720 5721 5722 5723 5724 5725 5726 5727 5728 5729 5730 5731 5731 5732 5732 5733 5734 5734 5734 5735 5735 5735 5735 5735 5735 5735 5735 5734 5734 5733 5733 5733 5732
5675 5677 5679 5681 5682 5684 5686 5687 5688 5690 5691 5692 5694 5696 5697 5698 5699 5700 5701 5702 5703 5703 5704 5705 5705 5706 5706 5707 5707 5708 5708 5709 5710 5710 5711 5711 5712 5712 5713 5714 5714 5715 5716 5716 5717 5718 5719 5720 5721 5722 5723 5724 5724 5725 5725 5726 5727 5727 5728 5728 5728 5728 5728 5728 5728 5728 5728 5728 5727 5727 5726 5726 5726 5725
5672 5674 5676 5678 5679 5681 5682 5684 5685 5687 5688 5689 5691 5692 5694 5695 5695 5696 5697 5698 5699 5700 5701 5701 5702 5703 5703 5704 5704 5705 5705 5705 5706 5707 5707 5708 5708 5708 5709 5709 5710 5710 5711 5712 5712 5713 5714 5714 5715 5716 5717 5718 5718 5719 5719 5720 5720 5721 5721 5722 5722 5722 5721 5721 5721 5721 5721 5721 5720 5720 5719 5719 5719 5718
5669 5671 5672 5674 5676 5677 5679 5681 5682 5683 5685 5686 5688 5689 5690 5691 5692 5693 5694 5695 5696 5696 5697 5698 5699 5699 5700 5700 5701 5701 5702 5702 5702 5703 5703 5704 5704 5705 5705 5705 5706 5706 5707 5707 5708 5708 5709 5709 5710 5711 5711 5712 5712 5713 5714 5714 5714 5715 5715 5715 5716 5715 5715 5715 5715 5715 5715 5714 5714 5713 5713 5712 5711 5711
5666 5667 5669 5671 5672 5674 5676 5677 5679 5680 5681 5683 5684 5686 5687 5688 5689 5690 5690 5692 5692 5693 5694 5695 5696 5696 5696 5697 5697 5698 5698 5699 5699 5699 5699 5700 5700 5700 5701 5701 5702 5702 5703 5703 5703 5704 5704 5705 5706 5706 5706 5707 5707 5708 5708 5709 5709 5709 5709 5709 5709 5709 5709 5709 5709 5709 5708 5708 5707 5707 5706 5705 5705 5705
5663 5664 5665 5667 5669 5670 5672 5673 5675 5676 5678 5679 5681 5682 5683 5684 5685 5686 5687 5688 5689 5690 5691 5691 5692 5692 5693 5693 5693 5694 5694 5694 5695 5695 5695 5695 5696 5696 5697 5697 5698 5698 5698 5699 5699 5700 5700 5701 5701 5701 5702 5702 5702 5703 5703 5703 5703 5704 5704 5704 5704 5704 5704 5703 5703 5703 5703 5702 5701 5701 5700 5700 5699 5699
5660 5661 5662 5664 5665 5667 5668 5670 5671 5673 5674 5676 5677 5678 5680 5681 5682 5683 5684 5685 5686 5686 5687 5688 5688 5689 5689 5690 5690 5690 5691 5691 5691 5691 5692 5692 5692 5693 5693 5693 5693 5694 5694 5694 5695 5695 5696 5696 5697 5697 5697 5698 5698 5698 5698 5699 5699 5699 5699 5699 5699 5699 5699 5699 5698 5698 5698 5698 5697 5697 5696 5696 5695 5694
5656 5658 5659 5660 5662 5663 5665 5666 5668 5669 5670 5672 5673 5674 5676 5677 5678 5679 5680 5681 5682 5683 5684 5684 5685 5685 5686 5686 5686 5687 5687 5687 5687 5688 5688 5688 5688 5689 5689 5690 5690 5690 5690 5690 5691 5691 5692 5692 5692 5693 5693 5694 5694 5694 5694 5694 5695 5695 5695 5695 5695 5695 5695 5695 5695 5694 5694 5694 5693 5693 5693 5692 5692 5691
5654 5655 5656 5657 5658 5660 5661 5663 5664 5665 5667 5668 5669 5671 5672 5673 5674 5675 5676 5677 5678 5679 5680 5681 5681 5682 5682 5682 5683 5683 5683 5683 5684 5684 5684 5685 5685 5685 5686 5686 5686 5686 5687 5687 5687 5687 5688 5688 5689 5689 5690 5690 5690 5691 5691 5691 5691 5692 5692 5692 5692 5692 5692 5692 5691 5691 5691 5690 5689 5689 5688 5688 5687 5686
5653 5653 5654 5655 5656 5657 5658 5659 5661 5662 5663 5664 5666 5667 5668 5669 5670 5671 5673 5674 5674 5675 5676 5677 5678 5678 5679 5679 5679 5680 5680 5680 5681 5681 5681 5681 5682 5682 5682 5683 5683 5683 5684 5684 5684 5685 5685 5686 5686 5687 5687 5687 5688 5688 5688 5689 5689 5689 5689 5689 5688 5688 5688 5688 5687 5687 5687 5686 5685 5684 5683 5683 5682 5681
5652 5652 5653 5653 5654 5655 5656 5657 5658 5659 5660 5661 5662 5664 5665 5666 5667 5668 5669 5670 5671 5672 5673 5674 5675 5675 5676 5676 5677 5677 5677 5678 5678 5678 5679 5679 5679 5679 5680 5680 5681 5681 5681 5682 5682 5683 5683 5683 5684 5684 5685 5685 5685 5685 5685 5686 5686 5686 5685 5685 5685 5684 5684 5683 5683 5683 5682 5682 5681 5680 5679 5677 5677 5676
5652 5652 5652 5652 5653 5653 5654 5655 5656 5657 5658 5659 5660 5661 5662 5663 5664 5665 5666 5667 5668 5669 5670 5671 5672 5672 5673 5674 5674 5675 5675 5675 5676 5676 5676 5677 5677 5677 5678 5678 5679 5679 5679 5680 5680 5680 5681 5681 5682 5682 5682 5682 5682 5681 5681 5682 5682 5681 5681 5681 5680 5680 5679 5679 5679 5678 5678 5677 5676 5675 5674 5673 5671 5670
5651 5651 5651 5651 5652 5652 5653 5653 5654 5655 5656 5657 5658 5659 5660 5661 5662 5663 5664 5665 5666 5666 5667 5668 5669 5670 5671 5671 5672 5672 5673 5673 5673 5674 5674 5674 5675 5675 5675 5676 5676 5677 5677 5677 5677 5678 5678 5678 5678 5678 5679 5679 5679 5678 5677 5677 5677 5676 5676 5676 5676 5675 5675 5674 5674 5673 5672 5672 5671 5670 5669 5668 5666 5665
5650 5650 5650 5650 5651 5651 5652 5652 5653 5653 5654 5655 5656 5657 5658 5659 5660 5660 5661 5662 5663 5664 5665 5666 5667 5667 5668 5669 5670 5670 5671 5671 5671 5671 5672 5672 5672 5673 5673 5673 5674 5674 5674 5674 5674 5674 5674 5674 5674 5674 5674 5674 5674 5674 5674 5673 5673 5672 5672 5671 5671 5671 5670 5670 5669 5668 5667 5666 5665 5664 5663 5662 5660 5659
5649 5649 5649 5650 5650 5650 5650 5651 5651 5652 5653 5653 5654 5655 5656 5657 5658 5658 5659 5660 5661 5662 5663 5663 5664 5665 5666 5666 5667 5668 5668 5668 5668 5669 5669 5669 5669 5670 5670 5670 5670 5671 5671 5671 5671 5671 5671 5671 5671 5670 5670 5670 5669 5669 5669 5669 5669 5668 5667 5667 5667 5666 5665 5665 5664 5662 5661 5661 5659 5658 5656 5655 5654 5652
5648 5648 5648 5648 5649 5649 5649 5650 5650 5651 5651 5652 5652 5653 5654 5655 5656 5656 5657 5658 5659 5659 5660 5661 5662 5662 5663 5663 5664 5665 5665 5665 5666 5666 5666 5666 5667 5667 5667 5667 5667 5667 5667 5667 5667 5667 5667 5666 5666 5666 5666 5665 5665 5665 5664 5664 5664 5663 5663 5662 5661 5661 5660 5659 5658 5656 5655 5654 5653 5652 5650 5648 5646 5644
5646 5646 5646 5647 5647 5647 5648 5648 5649 5649 5649 5650 5651 5651 5652 5653 5653 5654 5655 5656 5656 5657 5658 5658 5659 5659 5660 5660 5661 5661 5662 5662 5662 5663 5663 5663 5663 5664 5664 5664 5664 5664 5664 5664 5663 5663 5663 5662 5662 5662 5661 5661 5660 5660 5659 5658 5658 5658 5657 5656 5656 5655 5653 5652 5651 5650 5648 5647 5646 5644 5643 5641 5640 5637
5645 5645 5645 5645 5645 5646 5646 5646 5647 5647 5647 5648 5649 5649 5650 5650 5651 5652 5652 5653 5654 5654 5655 5655 5656 5656 5657 5657 5658 5658 5659 5659 5659 5659 5659 5659 5660 5660 5660 5660 5660 5660 5660 5659 5659 5659 5659 5658 5658 5657 5657 5656 5656 5655 5654 5654 5653 5652 5651 5650 5649 5648 5647 5646 5644 5643 5641 5640 5639 5637 5636 5634 5633 5631
5643 5643 5643 5643 5644 5644 5644 5644 5645 5645 5645 5646 5647 5647 5647 5648 5649 5649 5650 5650 5651 5652 5652 5653 5653 5653 5654 5654 5654 5655 5655 5655 5655 5655 5655 5655 5655 5655 5655 5655 5655 5655 5655 5655 5654 5654 5654 5654 5653 5653 5652 5652 5651 5650 5649 5649 5648 5647 5645 5644 5643 5642 5641 5639 5638 5636 5634 5632 5631 5629 5628 5626 5625 5623
5641 5641 5641 5642 5642 5642 5642 5642 5643 5643 5643 5644 5644 5645 5645 5646 5646 5647 5647 5648 5648 5649 5649 5650 5650 5650 5651 5651 5651 5651 5651 5652 5652 5652 5651 5651 5651 5651 5651 5651 5650 5650 5650 5650 5650 5649 5649 5649 5648 5648 5647 5646 5646 5645 5644 5643 5642 5641 5640 5638 5637 5636 5634 5633 5631 5629 5626 5624 5622 5621 5619 5617 5615 5614
5638 5638 5639 5639 5639 5640 5640 5640 5641 5641 5641 5642 5642 5643 5643 5643 5644 5644 5645 5645 5646 5646 5646 5647 5647 5647 5647 5647 5647 5647 5647 5647 5647 5647 5647 5647 5647 5647 5647 5646 5646 5646 5646 5645 5645 5645 5644 5644 5643 5642 5642 5641 5640 5639 5638 5637 5636 5635 5633 5631 5630 5629 5627 5625 5624 5621 5619 5616 5614 5612 5610 5607 5605 5603
Wind_Speed
31 30 29 29 29 30 31 31 31 32 31 29 31 33 34 33 34 33 29 27 29 29 27 27 28 27 27 25 25 25 24 24 26 26 25 25 26 24 22 22 21 21 22 22 23 23 23 23 23 23 23 22 21 20 19 19 18 17 17 17 16 16 15 15 15 14 14 14 14 14 13 12 12 12
33 32 30 29 29 30 31 32 31 31 31 29 29 32 34 32 32 34 32 30 29 29 28 28 29 29 27 26 26 25 25 26 28 28 26 27 27 26 24 23 22 22 22 22 22 23 23 24 24 24 24 24 23 23 22 21 20 20 19 19 18 17 17 17 17 16 16 16 16 16 16 15 15 14
34 34 32 31 30 30 31 32 31 31 31 31 30 31 32 32 32 33 33 31 29 29 30 30 31 31 29 28 28 27 26 27 28 27 26 27 27 27 26 25 25 24 23 23 23 23 23 23 24 24 24 25 24 24 24 23 23 22 21 21 20 20 20 19 19 18 18 18 18 18 18 18 18 18
36 35 34 33 31 31 30 31 32 32 32 32 32 31 31 32 33 33 33 31 29 31 32 31 31 31 29 29 28 27 26 26 27 27 27 27 27 27 27 28 28 27 26 25 24 23 23 23 23 24 24 25 25 25 25 25 24 24 23 23 22 22 22 22 21 21 20 20 20 20 20 21 21 20
36 36 36 35 33 32 31 31 32 33 33 33 33 33 32 32 33 34 33 31 31 33 34 32 31 31 30 30 28 27 27 27 27 28 28 29 29 28 28 29 30 29 28 26 25 24 24 24 24 24 24 24 25 25 25 25 25 25 25 24 24 24 24 24 23 23 22 22 22 22 22 23 23 23
36 37 37 37 35 32 32 32 33 33 33 33 33 33 34 32 33 34 35 33 33 35 36 35 34 32 31 32 32 30 29 28 29 28 28 30 31 30 30 29 29 29 28 26 25 25 25 25 25 24 24 25 25 25 26 26 26 26 25 25 25 25 25 25 25 25 24 24 24 24 24 24 24 24
36 37 37 37 36 34 34 34 34 33 33 33 33 34 34 32 32 33 35 35 35 35 37 37 37 34 32 32 33 33 31 30 31 30 30 31 31 31 30 29 29 29 28 26 26 26 26 27 27 26 26 26 26 26 26 26 26 26 26 26 26 26 26 26 26 26 26 26 26 26 26 26 26 26
35 36 36 36 37 37 36 36 35 34 33 32 32 33 34 32 31 32 34 36 36 35 37 37 37 36 35 34 34 34 33 33 32 32 32 31 31 31 30 29 30 31 30 29 29 29 28 28 28 28 28 28 27 27 27 26 26 26 26 26 26 27 27 27 27 27 27 27 27 27 27 27 27 27
35 35 36 36 37 38 38 37 35 34 33 32 32 32 33 33 32 31 33 36 37 36 37 37 36 37 37 36 34 33 33 32 33 33 33 32 32 32 32 30 32 33 31 29 29 29 29 29 29 29 29 29 28 27 26 26 26 26 27 27 27 28 28 28 28 28 28 28 28 28 27 27 27 27
36 35 35 36 37 39 38 37 35 33 32 32 31 31 32 32 33 32 32 34 36 36 37 37 37 38 38 36 35 33 31 31 32 33 33 34 34 34 32 31 32 33 32 30 29 29 29 30 30 30 29 28 27 27 26 26 27 27 27 27 28 28 28 29 29 28 28 28 28 28 27 27 27 27
37 37 36 36 37 38 37 36 34 31 31 32 31 31 31 32 32 32 31 33 35 36 38 39 39 39 39 38 37 35 33 32 32 33 33 34 36 35 34 33 33 33 32 31 31 32 32 31 30 29 29 27 27 27 27 27 27 27 28 29 28 28 28 27 28 28 29 29 28 27 27 27 27 27
37 38 37 36 36 36 35 35 33 31 31 31 31 30 30 31 31 31 30 30 33 36 38 39 40 40 40 40 39 37 37 36 35 35 34 34 35 36 35 33 32 33 34 32 31 32 33 32 30 29 29 28 28 28 28 28 28 29 30 30 29 29 28 27 27 28 29 29 28 28 28 29 28 28
37 38 37 36 36 35 33 32 32 31 30 30 29 29 28 29 31 31 30 29 30 34 36 37 38 39 40 40 39 38 39 39 36 35 35 35 35 36 36 35 32 32 34 33 33 32 33 33 32 30 30 29 28 28 27 28 30 31 31 30 30 30 29 27 27 28 28 29 29 29 30 30 30 30
36 37 37 37 36 34 32 30 30 30 29 28 27 27 26 27 28 29 31 31 31 32 34 35 36 37 38 39 39 40 42 41 38 36 36 36 36 36 36 36 35 35 35 34 34 34 33 33 33 31 30 28 27 27 27 29 32 33 32 31 31 32 30 29 29 29 29 30 31 31 32 33 33 33
33 34 36 37 36 34 32 31 30 29 29 28 27 25 25 26 27 27 28 30 32 32 33 35 36 36 36 37 38 40 42 41 39 36 35 36 38 38 38 37 37 37 37 36 36 36 35 34 32 31 30 29 28 29 30 32 34 35 33 32 33 33 33 33 32 32 32 33 34 34 34 35 36 36
30 32 34 34 34 34 33 30 28 27 27 28 27 25 24 25 26 26 26 27 29 31 32 35 37 36 35 35 37 38 39 38 39 38 34 34 38 39 39 38 37 37 38 38 39 38 37 36 34 34 34 33 32 32 34 35 37 37 36 35 35 36 37 37 36 35 35 35 35 36 37 37 38 39
28 29 31 31 32 33 31 29 27 27 26 25 24 24 24 24 24 25 26 26 27 28 30 33 35 35 35 35 36 38 38 37 39 41 38 36 38 39 39 38 38 38 38 38 39 38 37 36 36 35 35 35 34 34 35 36 38 39 39 38 37 37 37 37 37 37 37 37 37 38 38 40 41 42
25 26 28 29 30 30 29 28 27 27 26 24 23 23 23 24 24 25 26 26 26 26 26 28 31 33 35 36 36 37 38 38 39 42 41 39 38 38 38 38 37 37 37 38 38 38 37 37 37 36 36 35 36 36 36 36 37 38 39 40 40 40 39 39 39 39 39 39 39 40 41 42 43 43
23 24 25 26 28 28 28 27 26 26 25 23 22 22 23 23 24 24 25 26 25 25 24 25 27 29 32 34 35 35 36 36 37 40 43 42 40 38 38 39 38 36 36 36 35 34 34 35 35 34 34 33 33 34 35 36 37 37 38 39 40 40 40 40 39 38 39 40 41 43 43 44 44 44
24 23 23 24 25 26 26 26 25 25 23 22 22 22 22 22 22 22 23 24 24 24 24 24 24 26 28 30 32 33 33 33 33 35 39 43 43 41 39 39 39 39 39 38 35 32 33 35 35 34 34 34 33 34 35 36 37 39 40 40 40 40 39 39 39 40 41 42 43 44 45 45 46 46
25 23 22 22 23 24 24 24 25 24 23 22 22 22 21 21 21 21 21 22 23 23 23 24 24 24 25 27 29 31 32 32 31 33 36 41 43 43 40 40 40 41 42 42 41 39 39 40 39 39 38 38 38 37 38 38 39 40 41 41 41 41 41 41 41 42 43 44 45 47 48 50 50 51
26 24 22 21 22 22 23 24 24 24 23 22 22 22 21 20 20 20 20 21 22 22 22 22 23 23 24 25 27 29 31 32 32 31 33 36 41 44 43 42 42 42 43 44 44 45 45 45 44 43 42 42 42 41 41 42 42 43 43 43 42 42 43 44 44 45 47 48 50 52 53 54 54 54
27 26 25 23 21 21 22 23 24 23 23 22 22 22 22 21 20 19 19 19 20 20 21 21 21 22 23 23 25 28 29 30 31 30 29 31 36 41 43 44 43 43 43 43 44 45 46 46 45 45 44 44 44 43 43 44 45 46 48 48 48 47 47 48 48 49 50 51 52 52 52 52 52 52
26 27 27 25 23 22 22 23 23 23 23 22 22 22 22 21 20 19 18 19 18 19 19 19 19 19 20 21 23 25 27 27 26 27 27 28 30 32 36 38 40 41 41 42 42 43 44 44 44 44 44 44 44 44 44 44 44 45 46 47 47 46 47 47 48 48 49 50 50 50 50 50 50 51
26 27 27 27 25 24 23 22 22 22 22 22 22 22 21 20 19 18 18 18 18 18 18 18 17 17 17 19 21 23 24 25 24 24 25 27 27 28 28 29 31 32 34 36 38 39 40 42 42 43 43 42 42 41 40 41 41 41 42 43 44 44 45 46 47 48 49 50 50 50 50 51 51 52
26 26 27 27 27 26 25 24 23 23 23 23 22 21 21 20 20 20 19 19 19 18 18 19 18 17 17 18 19 20 22 24 25 25 25 25 26 27 27 28 29 29 29 30 31 33 34 35 36 37 37 37 37 37 37 38 39 39 40 41 41 42 42 43 44 44 45 46 46 47 48 49 49 50
26 26 27 27 27 27 27 26 26 25 25 24 24 23 22 22 22 22 22 21 21 20 20 20 20 19 18 19 19 20 22 23 24 25 25 25 25 26 26 27 28 29 29 30 30 30 31 31 31 32 32 33 34 34 34 34 35 35 36 36 37 37 38 38 39 40 40 41 42 43 44 45 46 47
25 26 27 27 27 27 27 27 27 27 26 26 26 25 25 24 24 24 24 24 23 23 22 22 22 22 21 21 21 21 22 23 23 24 25 25 26 26 26 26 27 27 28 29 29 30 30 30 31 31 32 33 33 33 33 33 33 34 34 34 35 36 36 37 38 38 39 40 40 41 41 42 43 43
24 26 26 27 27 27 27 27 27 27 27 27 27 26 26 25 25 25 25 25 25 25 24 24 23 23 23 23 23 22 23 23 24 24 24 24 25 26 27 27 26 26 27 27 28 28 29 29 30 31 32 32 33 33 33 33 33 33 33 34 34 34 34 35 35 36 36 37 37 37 37 38 38 39
23 24 25 26 26 27 27 27 27 27 27 26 26 26 26 25 25 25 25 25 24 25 25 25 24 24 24 24 24 23 24 24 24 25 25 24 24 24 25 25 25 25 25 25 25 26 27 27 28 29 29 29 30 30 31 31 31 31 31 32 32 32 32 31 31 31 31 31 31 31 31 31 32 32
22 23 24 25 26 26 26 26 27 26 26 26 26 25 25 25 24 24 24 24 24 24 24 24 25 24 24 24 23 23 24 24 24 25 25 24 23 22 22 22 22 22 22 22 22 23 24 25 25 26 27 27 27 27 28 28 28 28 28 28 27 27 27 26 26 25 25 25 25 25 25 26 26 26
19 21 22 24 24 25 25 26 26 26 26 26 25 25 25 24 24 24 23 23 23 23 23 23 24 24 24 23 23 23 23 23 23 23 23 22 21 19 19 19 18 18 18 18 19 20 20 21 22 23 24 24 24 23 23 23 23 23 23 23 22 22 21 21 21 21 22 22 23 23 23 24 25 26
16 18 20 22 23 24 25 25 25 26 26 26 26 25 25 25 24 24 24 23 23 23 22 22 22 22 23 22 22 22 21 20 20 20 19 18 17 16 15 15 15 15 15 16 16 17 17 18 18 19 19 19 19 19 19 19 19 19 20 20 20 20 20 20 21 21 22 23 24 25 25 26 26 27
12 14 17 19 21 22 23 24 25 25 25 26 26 26 25 25 25 24 24 23 23 22 21 21 20 21 21 21 20 20 19 18 17 16 15 14 13 13 12 12 12 12 12 13 13 14 14 15 15 16 16 17 17 17 18 18 18 19 19 20 21 21 22 22 23 23 24 25 25 26 27 28 28 28
8 10 12 15 17 18 20 21 22 23 23 24 24 24 24 24 23 23 22 22 21 21 20 20 19 19 19 19 19 19 18 16 15 13 13 12 11 10 10 9 9 9 10 11 12 13 13 14 15 15 16 16 17 18 19 19 19 20 21 22 22 23 23 24 24 25 25 25 26 27 28 30 30 31
6 7 9 11 12 14 16 17 18 19 20 21 21 21 21 21 21 21 20 20 20 20 20 19 19 19 19 19 19 18 17 16 14 13 12 11 11 10 10 10 10 10 11 12 13 14 14 15 15 16 16 16 17 18 19 20 20 21 21 21 22 23 23 24 25 26 27 27 28 30 31 33 34 35
6 7 7 8 10 11 12 13 14 15 16 17 18 18 18 18 18 19 19 19 19 19 19 19 19 18 18 18 18 17 17 16 15 14 13 12 12 12 12 12 13 13 14 14 15 15 15 16 16 17 17 18 18 19 20 20 21 21 22 22 22 23 25 26 28 29 30 31 32 33 34 36 37 39
7 7 7 8 9 10 10 11 12 13 14 15 15 16 16 17 17 17 18 18 18 18 18 18 18 18 17 17 17 17 17 16 16 15 14 14 14 14 15 15 15 15 15 16 16 17 17 18 18 19 20 20 20 20 21 21 21 22 24 25 26 27 28 30 31 33 34 35 37 38 39 40 41 42
9 9 9 9 9 10 10 11 12 12 13 13 14 15 15 15 16 16 16 16 17 17 17 17 17 17 17 17 17 17 17 16 16 16 16 17 17 17 16 16 17 17 17 18 19 19 20 20 21 21 22 22 22 22 22 23 24 25 26 28 29 31 32 34 35 37 38 39 40 42 43 44 45 46
10 10 10 10 10 10 11 11 12 12 13 13 14 14 14 15 15 15 16 16 17 17 17 18 18 18 18 18 17 17 17 17 17 17 18 18 18 18 18 18 19 19 20 20 21 22 22 23 23 23 23 23 24 24 25 26 27 28 30 31 33 35 36 38 39 41 42 43 44 45 46 47 48 49
12 11 11 11 11 11 11 12 12 12 13 13 14 14 14 15 16 16 17 17 17 18 18 18 18 18 18 18 17 17 18 18 18 18 19 19 19 20 20 21 22 22 23 23 24 24 25 25 25 25 25 26 27 28 29 31 32 33 34 36 37 39 41 42 44 45 46 47 48 49 49 50 50 51
14 13 12 12 12 12 12 12 12 13 13 13 14 14 15 15 16 16 17 17 17 18 18 18 18 18 18 18 19 19 19 20 20 21 21 21 22 22 23 24 24 25 25 25 26 26 26 26 27 27 28 29 30 32 33 34 36 37 39 40 42 43 45 46 47 48 49 50 51 52 52 52 53 53
16 15 15 14 14 14 14 14 14 14 14 14 14 15 15 16 16 16 17 17 18 18 18 18 19 19 20 20 21 21 22 22 22 23 24 24 25 25 26 27 27 27 27 28 28 28 28 28 29 30 31 32 34 35 36 37 39 40 42 43 45 46 47 48 50 51 52 53 53 54 54 55 55 56
19 18 17 17 16 16 16 15 15 16 16 15 16 16 17 17 17 17 18 18 18 19 19 20 21 21 22 23 23 24 24 25 25 26 26 27 28 29 29 29 30 30 29 29 29 30 30 31 32 33 35 36 37 38 39 40 42 43 45 46 47 48 49 50 51 52 53 54 55 56 57 58 59 60
23 21 21 20 20 19 19 18 18 18 18 18 18 18 19 19 19 20 20 20 21 21 22 22 23 24 24 25 26 26 27 27 28 29 29 30 30 31 31 31 31 31 31 31 31 32 33 34 35 37 38 39 40 41 43 44 45 46 48 49 50 51 52 52 53 53 54 56 57 58 59 61 62 63
Wind_Direction
253 254 254 254 253 251 250 249 248 250 251 246 243 243 242 243 244 244 249 249 242 240 241 240 239 239 239 239 238 235 234 233 233 236 237 236 235 233 232 234 234 234 235 235 236 236 236 236 236 236 237 238 240 242 243 244 244 244 245 248 251 253 256 259 260 261 260 259 258 257 256 255 255 256
253 254 255 254 254 254 253 251 250 252 253 247 244 245 244 243 244 243 246 248 243 239 240 241 241 240 241 243 243 237 232 230 229 232 235 235 236 235 233 233 234 235 235 235 235 236 236 237 237 237 237 238 239 241 242 243 243 243 244 245 248 250 253 255 256 257 258 257 257 256 255 255 255 256
250 253 254 254 254 255 253 252 253 255 254 250 249 249 247 244 243 243 244 246 245 240 239 241 242 242 243 245 244 239 233 232 231 231 233 236 237 236 234 233 233 233 234 234 235 236 236 237 237 238 237 237 237 238 239 240 241 242 242 243 245 246 248 250 251 252 253 254 254 253 253 253 254 255
247 249 253 255 255 255 255 253 253 254 254 252 251 252 251 246 243 244 244 244 244 242 238 239 240 240 241 242 241 237 235 235 235 234 235 238 239 238 237 235 233 232 232 233 234 236 237 238 238 238 238 238 237 237 237 238 239 240 241 242 243 244 246 248 250 251 252 253 253 254 254 254 254 254
246 247 249 251 253 254 255 254 252 252 252 251 249 250 252 249 244 244 244 243 242 241 238 235 235 236 238 238 238 237 237 237 238 238 237 239 239 238 239 239 238 235 233 233 235 236 238 239 239 240 240 240 239 239 238 238 239 240 241 242 243 244 246 248 250 252 253 254 255 255 255 255 256 256
246 246 247 249 251 251 252 253 252 253 253 251 249 249 251 251 247 245 244 243 242 242 239 235 235 238 239 238 239 240 239 238 239 240 240 241 240 237 236 239 243 242 240 239 239 240 241 241 241 241 242 242 242 242 241 241 241 242 243 244 245 246 248 250 251 253 255 256 258 258 258 258 259 259
245 245 247 250 252 252 252 252 253 253 254 252 250 249 249 249 249 246 243 243 243 242 240 238 239 242 242 241 241 241 240 239 240 241 243 244 241 238 236 236 239 242 240 239 240 242 243 243 243 242 242 243 244 244 244 245 245 246 246 247 248 249 251 252 254 256 258 260 261 262 262 261 261 261
244 245 246 247 249 251 252 253 253 253 253 252 249 249 250 249 249 247 242 240 241 241 240 241 241 242 243 243 243 241 238 238 239 240 244 245 242 240 239 237 238 239 238 237 237 238 240 243 243 243 243 243 244 245 247 248 250 251 253 253 254 255 256 257 258 260 262 263 265 265 264 264 263 263
244 245 245 245 246 248 251 252 252 252 252 252 250 250 251 250 252 252 246 241 240 240 240 240 239 239 241 242 243 241 238 237 237 238 241 245 244 242 240 239 241 242 241 240 238 238 239 242 243 243 244 245 246 248 250 253 255 256 258 259 260 261 261 262 263 264 265 266 266 265 264 263 263 264
244 244 245 245 245 247 251 253 253 253 253 253 254 253 251 250 252 255 252 245 243 242 241 240 238 237 239 241 243 243 240 237 237 237 239 242 244 245 242 239 240 243 244 244 244 244 244 245 244 245 246 247 249 252 253 255 256 257 258 259 260 261 262 263 264 265 265 265 265 265 264 264 264 265
244 246 246 246 246 249 254 256 255 253 251 253 256 259 256 251 250 254 255 250 245 243 243 242 241 240 240 241 243 246 245 241 237 237 238 241 244 245 244 240 238 241 244 245 246 246 246 247 247 246 245 247 249 251 253 254 255 256 255 254 255 256 258 261 263 264 264 265 266 266 266 264 264 266
243 246 247 247 248 250 253 256 257 254 251 253 257 262 262 256 252 253 256 254 247 243 243 244 244 243 244 244 243 245 247 244 240 238 237 239 242 245 246 243 239 240 244 245 245 245 246 248 248 247 247 247 247 249 252 256 257 257 256 256 256 256 256 256 258 261 263 265 266 266 266 265 264 265
241 245 247 247 248 249 250 254 258 256 254 254 257 262 265 262 257 256 258 259 252 245 244 245 245 245 245 244 242 243 244 245 244 242 239 239 241 244 246 245 242 243 245 244 244 246 248 249 249 251 251 249 247 249 253 257 259 258 258 259 259 258 255 253 253 255 259 261 262 262 264 266 266 266
239 243 246 247 249 251 250 251 254 255 255 256 257 261 264 264 262 261 261 261 257 251 247 246 246 245 244 242 242 243 244 244 247 247 244 242 242 243 245 246 246 247 248 247 246 247 248 249 249 251 251 249 246 247 249 252 255 257 258 258 258 258 257 256 256 257 258 259 260 260 261 264 265 266
237 241 244 247 249 251 251 249 250 252 254 254 254 257 261 263 263 264 264 261 258 255 251 248 246 246 245 245 246 246 244 245 248 249 247 244 244 243 244 246 248 250 250 249 248 247 248 250 250 250 250 249 248 248 248 249 252 255 257 257 256 257 257 258 260 262 262 261 262 262 261 262 264 265
236 238 241 244 246 249 250 250 250 251 251 250 250 252 256 259 260 263 264 262 258 257 255 252 249 249 251 252 251 250 249 248 248 250 250 247 246 244 243 245 249 251 251 251 250 249 249 250 251 251 252 252 251 251 251 252 253 255 257 258 258 257 257 258 261 263 264 263 263 263 262 263 264 265
235 237 239 241 244 246 248 250 251 251 250 249 248 248 251 254 258 260 262 262 260 260 260 258 255 253 253 255 255 254 253 251 249 251 252 251 249 246 243 244 248 250 251 253 253 250 249 249 249 250 253 254 254 254 255 256 256 256 258 259 259 258 257 259 262 264 264 264 264 263 264 265 266 267
234 237 238 239 240 242 245 248 248 248 247 246 245 245 249 253 256 257 258 259 260 260 262 261 259 256 254 255 256 256 254 252 250 251 253 254 254 250 245 244 247 248 250 253 254 251 249 250 250 252 255 256 256 255 255 255 256 258 259 259 258 258 259 261 263 265 264 264 264 265 266 268 269 270
234 238 238 238 239 240 241 243 244 242 241 240 242 246 250 253 255 255 256 256 257 259 261 262 261 258 256 256 257 258 257 256 254 254 255 255 255 253 250 247 248 249 249 250 252 249 248 250 252 253 255 257 257 255 254 255 257 260 260 260 258 258 259 260 262 264 265 265 265 267 268 269 270 271
234 238 239 238 238 239 239 239 238 237 236 236 240 246 250 251 253 254 253 254 256 258 262 264 263 259 256 255 256 257 257 257 255 254 254 253 252 253 254 252 250 250 249 248 247 244 243 247 251 253 255 256 257 257 256 256 257 257 257 259 259 259 258 260 262 264 265 265 266 267 269 270 272 273
234 237 240 239 237 238 238 236 235 234 233 235 238 243 247 248 250 250 250 252 255 258 262 266 266 261 255 251 251 252 254 255 253 250 250 251 251 251 251 251 250 250 250 250 249 247 247 250 254 257 258 258 259 259 259 259 258 259 260 262 263 261 260 261 261 261 262 263 263 265 268 271 272 274
234 237 240 240 237 237 236 236 234 233 233 234 237 240 243 244 246 247 247 249 252 256 260 265 266 263 257 252 249 249 250 251 251 252 253 252 251 250 250 251 251 251 252 252 251 251 252 254 256 257 258 260 261 261 261 262 262 264 265 266 265 263 262 261 261 261 262 263 265 268 270 272 273 274
236 238 241 241 238 236 236 236 235 233 232 233 235 238 241 242 242 244 246 248 251 255 260 264 267 266 262 257 252 251 251 251 251 253 256 255 251 248 248 250 253 254 255 255 254 254 255 256 258 258 259 261 262 263 264 264 264 264 264 264 264 263 263 263 263 264 265 267 268 271 273 274 274 274
238 239 240 241 240 238 236 236 236 236 234 234 234 236 239 241 242 243 246 249 253 256 261 268 272 272 268 263 258 254 253 256 258 257 257 257 255 251 248 248 249 250 252 254 255 255 256 257 258 259 260 261 263 263 264 264 264 263 262 262 263 263 264 264 265 267 268 269 271 272 273 273 274 275
238 239 240 242 242 241 239 238 238 238 237 236 236 236 239 243 245 247 248 251 255 260 265 271 274 275 273 269 263 255 251 255 262 263 261 259 259 259 257 253 251 249 249 250 251 252 253 254 255 256 258 260 261 262 263 264 264 264 264 264 264 265 265 266 266 267 269 270 271 272 273 274 274 275
238 239 240 242 243 243 243 242 241 241 240 240 240 241 244 247 249 251 254 256 260 263 268 272 273 273 272 272 270 265 261 262 266 267 266 265 264 264 264 262 259 257 254 253 253 253 253 254 255 257 258 261 262 263 264 265 266 266 266 266 267 267 268 269 270 271 272 273 274 274 275 275 276 276
239 239 240 241 243 244 244 244 244 244 244 244 244 245 246 248 251 255 258 261 264 267 269 272 274 273 270 269 269 269 269 270 270 269 269 269 269 268 269 268 266 264 263 261 260 260 260 260 261 263 264 264 264 265 265 266 267 268 269 271 272 274 275 276 276 277 277 278 278 278 278 278 278 278
239 238 239 240 241 242 244 244 245 245 246 246 246 247 248 249 252 256 259 262 266 269 271 272 274 275 273 271 269 268 269 270 271 272 272 272 272 272 271 269 267 267 266 266 266 266 266 266 267 267 267 266 267 268 270 272 273 275 276 277 278 278 279 279 279 279 279 279 280 280 280 280 281 281
238 237 237 238 239 240 241 242 243 244 245 246 247 248 249 251 253 256 259 262 265 268 271 273 274 275 276 275 273 271 271 271 272 273 275 276 277 277 276 274 272 269 268 267 267 266 266 266 266 266 266 266 268 270 272 274 276 278 279 279 280 279 279 280 280 280 281 281 281 282 282 282 283 283
238 237 236 236 236 237 238 239 241 242 243 245 247 248 249 251 253 256 258 260 262 264 268 271 272 273 274 275 274 273 273 274 275 276 277 278 279 279 279 279 278 275 273 271 269 268 267 266 267 268 269 270 271 272 273 275 276 277 278 279 279 279 280 280 281 282 283 284 285 285 286 287 287 288
239 238 236 235 235 235 235 237 238 239 241 243 245 246 248 250 252 254 256 257 259 260 262 264 267 270 271 271 272 272 272 272 273 275 277 278 278 277 277 276 275 274 273 272 270 269 268 267 268 269 269 270 271 272 273 274 275 276 277 278 279 281 282 283 284 285 285 286 286 286 287 287 288 288
240 238 237 236 235 234 234 235 236 237 239 241 242 245 246 248 249 251 253 254 255 257 258 259 261 264 267 269 270 271 271 271 271 272 273 274 274 274 272 270 269 268 267 266 264 263 263 263 264 265 266 268 270 271 273 275 277 278 279 279 279 280 280 280 281 281 282 282 282 282 283 283 284 285
244 238 236 236 236 235 235 235 235 236 237 238 240 242 243 245 247 248 250 252 253 254 255 256 258 261 265 268 270 271 272 272 271 271 271 271 270 268 264 260 258 256 256 256 256 256 257 259 261 263 265 267 270 272 272 273 273 274 274 274 274 274 273 274 275 276 278 280 281 282 283 284 285 286
249 241 237 235 235 235 235 235 235 236 236 237 238 240 241 243 244 246 247 249 250 252 253 254 257 259 262 266 268 269 270 269 269 267 266 264 262 259 254 250 248 246 247 248 249 251 253 256 258 261 263 264 266 266 266 266 267 267 267 268 270 272 273 275 277 279 281 284 286 288 290 290 291 292
253 244 238 235 234 234 234 234 235 235 236 236 237 238 240 241 242 243 244 245 246 248 250 253 255 257 259 262 264 265 265 264 263 261 258 257 256 254 251 250 248 246 245 245 244 244 246 248 250 251 253 255 257 258 259 260 262 266 269 272 276 278 280 283 285 287 288 290 292 294 295 296 296 297
254 245 238 234 232 231 231 232 233 234 235 235 236 237 238 239 240 241 242 243 245 248 250 252 254 255 255 256 258 259 260 260 259 257 255 255 255 255 254 252 249 246 244 242 241 240 242 244 247 249 252 256 262 267 269 270 272 275 278 281 284 286 288 290 291 292 293 294 295 295 296 297 297 297
252 244 239 234 231 230 229 229 230 231 232 233 234 235 236 238 239 241 242 244 246 248 250 251 253 253 253 253 253 254 256 257 258 259 258 257 256 255 254 251 248 246 245 245 247 249 251 255 258 261 264 267 271 275 279 282 284 285 287 289 291 292 293 294 295 295 295 295 295 295 296 296 296 296
254 247 241 235 231 230 229 228 229 229 230 231 233 234 236 237 239 241 243 245 247 249 250 251 252 252 252 251 251 251 252 254 256 258 258 258 256 254 252 250 250 250 252 255 258 260 263 266 269 272 275 277 278 279 281 284 287 288 290 292 293 293 293 294 294 295 295 295 295 295 296 296 296 297
255 251 247 242 236 232 231 230 230 230 231 232 234 235 237 239 241 243 245 246 248 249 250 250 251 251 251 251 251 252 252 252 253 254 255 256 256 256 256 257 258 259 261 263 266 268 270 272 275 277 279 280 282 283 284 285 286 287 288 290 291 292 293 294 294 294 295 295 295 296 296 297 297 297
258 254 251 248 244 240 237 235 234 233 234 234 236 237 239 241 243 244 245 246 247 248 249 250 251 252 252 253 253 252 252 252 252 253 255 256 257 258 260 262 264 266 267 269 272 274 276 278 280 281 282 283 284 285 285 286 286 288 289 291 292 294 295 295 296 296 296 296 296 296 296 297 297 297
264 261 257 254 251 248 245 243 241 240 240 239 239 241 242 243 244 245 246 248 249 250 251 251 252 253 254 254 254 255 255 256 257 257 258 259 260 261 262 264 266 267 269 271 273 275 276 278 279 280 282 283 284 285 286 287 288 290 291 293 294 295 296 296 296 296 296 296 296 296 296 296 297 297
265 264 262 260 258 255 252 251 249 247 247 246 246 246 247 247 247 249 250 251 252 253 253 254 254 255 256 256 256 257 257 259 260 261 261 262 263 265 266 267 268 269 270 272 273 274 275 276 277 278 279 281 282 284 285 287 289 291 292 294 295 295 296 296 296 296 295 295 295 295 295 295 295 296
262 262 261 260 260 258 257 257 256 255 255 254 253 253 253 253 253 253 253 254 254 255 255 256 256 257 257 257 258 258 259 260 262 264 265 266 267 268 269 270 271 272 272 273 273 273 274 275 276 278 279 280 282 284 286 288 290 291 292 293 294 294 295 295 295 295 295 295 294 294 294 294 294 295
260 260 261 260 259 259 259 258 258 258 259 258 258 257 257 258 257 257 257 257 257 257 257 257 257 257 257 258 260 260 262 263 264 265 267 268 270 271 271 271 272 272 272 272 272 273 274 276 278 279 281 282 284 285 287 288 289 290 291 292 292 293 293 294 294 295 295 295 295 295 295 295 295 296
262 261 261 261 261 260 260 260 259 260 260 260 260 261 261 261 261 260 260 259 259 258 258 258 258 258 259 261 262 264 265 266 267 268 268 269 270 270 271 272 272 272 272 272 273 274 276 278 280 281 282 283 284 285 286 287 289 290 290 291 292 293 293 294 295 295 296 296 296 297 297 297 297 297